User: anonymous   Login
Location: Gradaro
(45.0833°N, 10.8833°E)
Time: 06:39:14
(UTC+00:00)
Language:

deb r/b Ablestar - Orbit

View from above orbital plane
View from above orbital plane
View from above satellite
View from above satellite

Ground track
Ground track

The orbit data is extracted from the following two-line orbital elements,

1   172U 61015AY  21171.27940369 -.00000074  00000-0 -68975-5 0  9998
2   172  67.0690  15.1424 0142050 278.3507  80.1473 13.57577920957944
Epoch (UTC): 20 June 2021 06:42:20
Eccentricity: 0.0142050
inclination: 67.0690°
perigee height: 939 km
apogee height: 1150 km
right ascension of ascending node: 15.1424°
argument of perigee: 278.3507°
revolutions per day: 13.57577920
mean anomaly at epoch: 80.1473°
orbit number at epoch: 95794

The dashed part of the orbit path shows where the satellite is in the earth's shadow,  

DLR